User: anonymous   Login
Location: Newark
(43.6583°N, 1.6617°E)
Time: 07:27:28
(UTC+00:00)
Language:

Courier 1B Rocket - Orbit

View from above orbital plane
View from above orbital plane
View from above satellite
View from above satellite

Ground track
Ground track

The orbit data is extracted from the following two-line orbital elements,

1    59U 60013B   19236.60297087 +.00000117 +00000-0 +38099-4 0  9996
2    59 028.2500 308.1922 0189280 306.2762 052.0433 13.52970210906239
Epoch (UTC): 24 August 2019 14:28:16
Eccentricity: 0.0189280
inclination: 28.2500°
perigee height: 920 km
apogee height: 1202 km
right ascension of ascending node: 308.1922°
argument of perigee: 306.2762°
revolutions per day: 13.52970210
mean anomaly at epoch: 52.0433°
orbit number at epoch: 90623

The dashed part of the orbit path shows where the satellite is in the earth's shadow,  

DLR